Miscellaneous Local Product
Issued by NWS Hastings, NE

Home | Current Version | Previous Version | Graphics & Text | Print | Product List | Glossary Off
Versions: 1 2 3 4 5 6 7 8 9 10 11 12 13 14 15 16 17 18 19 20 21 22 23 24 25 26 27 28 29 30 31 32 33 34 35 36 37 38 39 40 41 42 43 44 45 46 47 48 49 50

000
AXUS43 KGID 251602
MISGRI

GID CWA HOURLY WEATHER ROUNDUP
NATIONAL WEATHER SERVICE HASTINGS NE
1100 AM CDT FRI JUL 25 2014

NOTE: "FAIR" INDICATES FEW OR NO CLOUDS BELOW 12,000 FEET WITH NO
SIGNIFICANT WEATHER AND/OR OBSTRUCTIONS TO VISIBILITY.

...SOUTH CENTRAL NEBRASKA...

CITY           SKY/WX    TMP DP  RH WIND       PRES   REMARKS
GRAND ISLAND   SUNNY     88  66  48 W12       29.78F HX  90
HASTINGS       SUNNY     87  63  44 SW9       29.80R
KEARNEY        SUNNY     88  63  42 NW7       29.82S
ORD            SUNNY     82  65  56 N17       29.80R
YORK           SUNNY     86  72  62 W13       29.77S HX  92
AURORA         SUNNY     86  70  59 W9        29.77S HX  90
LEXINGTON      MOSUNNY   84  66  54 N10       29.85R
HOLDREGE       MOSUNNY   85  63  47 NW3       29.83R
HEBRON         SUNNY     88  65  46 SW15G24   29.78S HX  90

...NEBRASKA PANHANDLE...

CITY           SKY/WX    TMP DP  RH WIND       PRES   REMARKS
CHADRON        SUNNY     78  31  17 NE14      30.01F
ALLIANCE       MOSUNNY   76  45  33 N17G25    30.03F
SCOTTSBLUFF    PTSUNNY   79  44  28 NE10      30.03F
SIDNEY         MOSUNNY   78  53  41 N14       30.06R

...WESTERN AND NORTH CENTRAL NEBRASKA...

CITY           SKY/WX    TMP DP  RH WIND       PRES   REMARKS
VALENTINE      MOSUNNY   76  64  66 N18       29.89F
AINSWORTH      SUNNY     77  66  70 NW14      29.87S
ONEILL         MOSUNNY   83  67  59 NW9       29.80R
BROKEN BOW     SUNNY     81  67  62 N18G25    29.85R
IMPERIAL       MOSUNNY   81  62  52 NW18      29.95R
NORTH PLATTE   SUNNY     81  62  52 N13       29.89S
MCCOOK         PTSUNNY   84  61  45 N10       29.87R

...EASTERN NEBRASKA...

CITY           SKY/WX    TMP DP  RH WIND       PRES   REMARKS
NORFOLK        SUNNY     83  71  67 S9        29.75R
SO SIOUX CITY  SUNNY     77  65  66 SE13G21   29.76F
COLUMBUS       SUNNY     86  72  62 SW10      29.74F HX  92
ALBION         MOSUNNY   84  69  60 W5        29.76F
OMAHA EPPLEY   SUNNY     80  67  64 SE15      29.78F
OFFUTT AFB     SUNNY     82  73  75 E13       29.78F
MILLARD        SUNNY     81  71  70 E10       29.77S
LINCOLN        SUNNY     90  69  50 SW13      29.76F HX  94
NEBRASKA CITY  SUNNY     82  72  70 SE8       29.79F
BEATRICE       MOSUNNY   89  72  57 SW10G20   29.78S HX  95
FALLS CITY     SUNNY     89  71  55 SW13      29.80S HX  95

...NORTHERN KANSAS...

CITY           SKY/WX    TMP DP  RH WIND       PRES   REMARKS
GOODLAND       MOSUNNY   89  54  30 N14       29.96R
HILL CITY      PTSUNNY   88  61  40 SW7       29.82F
NORTON         SUNNY     93  52  24 NW12      29.82S HX  90
PHILLIPSBURG   SUNNY     90  57  33 SW8       29.80F
SMITH CENTER   SUNNY     90  63  40 SW12      29.80F HX  90
HAYS           PTSUNNY   82  61  47 SW20G25   29.83S
RUSSELL        MOSUNNY   91  64  40 SW22G29   29.80F HX  92
CONCORDIA      SUNNY     91  68  46 SW22G33   29.78F HX  95
SALINA         MOSUNNY   95  67  39 SW23G30   29.81S HX  99
TOPEKA         MOSUNNY   87  70  56 SW10      29.83F HX  92



USA.gov is the U.S. government's official web portal to all federal, state and local government web resources and services.